IRIDIUM 33 DEB, 33881

Orbit data source: Space-Track

IRIDIUM 33 DEB, 33881 is space debris in LEO originally from a launch on Sun, 14 Sep 1997 UTC launched from the Tyuratam Missile And Space Complex (TTMTR). The debris from Iridium 33, an American commercial communications satellite, has been tracked extensively since its accidental collision with the defunct Russian satellite Cosmos 2251 in 2009. This event, occurring at high speed in low Earth orbit (LEO), generated thousands of pieces of space debris, significantly increasing the risk of further collisions. The Iridium 33 debris cloud has impacted space traffic management and orbital debris mitigation strategies, making it a subject of ongoing study in space situational awareness.

Loading next visibility...
Identifier
33881, 1997-051BA
Orbit
LEO
Country
Flag of USUS
Related business
Manufacturer
Unknown
Mission
Spacecraft
Bus & Motor
Unknown
Mass
Unknown
Launch date (UTC)
1997-09-14 (28 years ago)
Launch vehicle
Unknown
Launch site
Tyuratam Missile And Space Complex (TTMTR)
Object type
Payload
Rocket body
Debris
Shape & HBR
Unknown shape, 0.1 m
Radar Cross Section
Small (<0.1 m²)

Expand to show TLE details & history
Last TLE update: 15 hours ago

TLE from 15 hours ago
0 IRIDIUM 33 DEB
1 33881U 97051BA  25350.84914791  .00006959  00000-0  15153-2 0  9999
2 33881  86.3860 104.9563 0061475 161.4130 328.2230 14.56649424875604
Epoch: 2025-12-16T20:22Z
TLE epoch observation values (Epoch: 2025-12-16T20:22:46.379Z)
Latitude
50.69849°
Longitude
-110.86594°
Altitude
675.292 km
Speed
7.544 km/s
True Right ascension
18h 42m 13s
True Declination
50° 31' 40"
Sunlit
Object was in daylight at epoch
Visualization orbit readout
Latitude
Unknown
Longitude
Unknown
Altitude
Unknown
Speed
Unknown
Apparent Right ascension
Unknown
Apparent Declination
Unknown
Sunlit
N/A
Visualization observer readout
Local Sidereal Time
10:16:52
Azimuth
Unknown
Elevation
Unknown
Doppler factor
Unknown
Orbital elements
Apogee altitude
744.465 km
Perigee altitude
657.428 km
Semi-major axis
7,079.083 km
Eccentricity
0.00615
Inclination
86.386°
RAAN
104.9563°
Arg. of periapsis
161.413°
True anomaly
327.84959°
Mean anomaly
328.223°
Eccentric anomaly
328.03654°
Mean motion
3.64399 °/min
Orbital period
98.79 mins
BSTAR
0.0015153
Loading maneuver chart data...
Computing Atmospheric mass density...

Documentation

Showing up to 5 results
|